| time (UTC) | temp C | wind direction | speed KPH | gust KPH | rain 1hr cm | rain 24hr cm | rain mn cm | humidity % | barometer mb |
| 20260504034544 | 14 | 177 | 3.2 | 11.3 | 0.00 | 0.00 | 0.00 | 38 | 1009.6 |
| 20260504033052 | 14 | 196 | 1.6 | 9.7 | 0.00 | 0.00 | 0.00 | 37 | 1009.1 |
| 20260504031555 | 14 | 142 | 1.6 | 11.3 | 0.00 | 0.00 | 0.00 | 36 | 1009.0 |
| 20260504030049 | 14 | 190 | 3.2 | 16.1 | 0.00 | 0.00 | 0.00 | 36 | 1008.9 |
| 20260504024555 | 15 | 222 | 6.4 | 20.9 | 0.00 | 0.00 | 0.00 | 35 | 1008.4 |
| 20260504023049 | 15 | 78 | 8.0 | 22.5 | 0.00 | 0.00 | 0.00 | 35 | 1008.2 |
| 20260504021552 | 16 | 143 | 8.0 | 22.5 | 0.00 | 0.00 | 0.00 | 33 | 1008.0 |
| 20260504020050 | 16 | 92 | 6.4 | 24.1 | 0.00 | 0.00 | 0.00 | 32 | 1007.7 |
| 20260504014547 | 18 | 135 | 3.2 | 16.1 | 0.00 | 0.00 | 0.00 | 31 | 1007.2 |
| 20260504013049 | 18 | 178 | 3.2 | 14.5 | 0.00 | 0.00 | 0.00 | 32 | 1006.9 |
| 20260504011542 | 19 | 167 | 3.2 | 14.5 | 0.00 | 0.00 | 0.00 | 31 | 1006.8 |
| 20260504010041 | 19 | 139 | 4.8 | 14.5 | 0.00 | 0.00 | 0.00 | 31 | 1006.6 |
| 20260504004553 | 20 | 173 | 6.4 | 14.5 | 0.00 | 0.00 | 0.00 | 31 | 1006.6 |
| 20260504003044 | 20 | 123 | 4.8 | 14.5 | 0.00 | 0.00 | 0.00 | 31 | 1006.6 |
| 20260504001548 | 20 | 124 | 4.8 | 20.9 | 0.00 | 0.00 | 0.00 | 30 | 1006.7 |
| 20260504000050 | 20 | 139 | 9.7 | 22.5 | 0.00 | 0.00 | 0.00 | 29 | 1006.6 |
| 20260503234544 | 21 | 115 | 8.0 | 22.5 | 0.00 | 0.00 | 0.00 | 28 | 1006.6 |
| 20260503233040 | 21 | 130 | 8.0 | 25.7 | 0.00 | 0.00 | 0.00 | 28 | 1006.5 |
| 20260503231549 | 22 | 153 | 6.4 | 25.7 | 0.00 | 0.00 | 0.00 | 28 | 1006.3 |
| 20260503230051 | 22 | 133 | 11.3 | 25.7 | 0.00 | 0.00 | 0.00 | 25 | 1006.1 |
| 20260503224547 | 22 | 71 | 9.7 | 24.1 | 0.00 | 0.00 | 0.00 | 24 | 1006.0 |
| 20260503223045 | 22 | 124 | 11.3 | 24.1 | 0.00 | 0.00 | 0.00 | 24 | 1006.1 |
| 20260503221548 | 22 | 86 | 9.7 | 25.7 | 0.00 | 0.00 | 0.00 | 25 | 1006.1 |
| 20260503220042 | 22 | 104 | 9.7 | 24.1 | 0.00 | 0.00 | 0.00 | 25 | 1006.0 |
| 20260503214546 | 23 | 123 | 9.7 | 22.5 | 0.00 | 0.00 | 0.00 | 24 | 1006.2 |
| 20260503213045 | 23 | 106 | 9.7 | 27.4 | 0.00 | 0.00 | 0.00 | 24 | 1006.3 |
| 20260503211547 | 23 | 201 | 8.0 | 29.0 | 0.00 | 0.00 | 0.00 | 26 | 1006.6 |
| 20260503210044 | 23 | 99 | 11.3 | 24.1 | 0.00 | 0.00 | 0.00 | 24 | 1006.7 |
| 20260503204544 | 23 | 71 | 11.3 | 27.4 | 0.00 | 0.00 | 0.00 | 24 | 1006.8 |
| 20260503203042 | 22 | 99 | 11.3 | 25.7 | 0.00 | 0.00 | 0.00 | 26 | 1006.6 |
| 20260503201541 | 22 | 147 | 8.0 | 25.7 | 0.00 | 0.00 | 0.00 | 26 | 1007.1 |
| 20260503200049 | 22 | 101 | 9.7 | 25.7 | 0.00 | 0.00 | 0.00 | 27 | 1007.3 |
| 20260503194549 | 22 | 71 | 6.4 | 19.3 | 0.00 | 0.00 | 0.00 | 29 | 1007.6 |
| 20260503193053 | 22 | 109 | 8.0 | 19.3 | 0.00 | 0.00 | 0.00 | 28 | 1007.9 |
| 20260503191543 | 22 | 101 | 8.0 | 27.4 | 0.00 | 0.00 | 0.00 | 28 | 1008.2 |
| 20260503190049 | 21 | 95 | 8.0 | 25.7 | 0.00 | 0.00 | 0.00 | 28 | 1008.3 |
| 20260503184554 | 21 | 116 | 9.7 | 20.9 | 0.00 | 0.00 | 0.00 | 28 | 1008.5 |
| 20260503183042 | 21 | 124 | 8.0 | 25.7 | 0.00 | 0.00 | 0.00 | 29 | 1008.7 |
| 20260503181548 | 21 | 117 | 9.7 | 20.9 | 0.00 | 0.00 | 0.00 | 29 | 1008.9 |
| 20260503180047 | 20 | 114 | 6.4 | 17.7 | 0.00 | 0.00 | 0.00 | 32 | 1008.9 |
| 20260503174601 | 20 | 122 | 8.0 | 20.9 | 0.00 | 0.00 | 0.00 | 33 | 1009.3 |
| 20260503173046 | 18 | 90 | 3.2 | 12.9 | 0.00 | 0.00 | 0.00 | 37 | 1009.6 |
| 20260503171558 | 18 | 98 | 3.2 | 8.0 | 0.00 | 0.00 | 0.00 | 37 | 1009.7 |
| 20260503081553 | 6 | 51 | 3.2 | 11.3 | 0.00 | 0.00 | 0.00 | 72 | 1012.0 |
| 20260503071547 | 7 | 46 | 1.6 | 9.7 | 0.00 | 0.00 | 0.00 | 69 | 1012.5 |
| 20260503054546 | 8 | 0 | 0.0 | 1.6 | 0.00 | 0.00 | 0.00 | 62 | 1012.7 |
| 20260503053043 | 9 | 0 | 0.0 | 1.6 | 0.00 | 0.00 | 0.00 | 62 | 1013.0 |
| 20260503051542 | 10 | 256 | 0.0 | 3.2 | 0.00 | 0.00 | 0.00 | 60 | 1012.9 |
| 20260503050049 | 10 | 274 | 0.0 | 4.8 | 0.00 | 0.00 | 0.00 | 59 | 1013.1 |
| 20260503044547 | 10 | 0 | 0.0 | 3.2 | 0.00 | 0.00 | 0.00 | 57 | 1013.1 |
| 20260503043045 | 11 | 0 | 0.0 | 4.8 | 0.00 | 0.00 | 0.00 | 55 | 1013.2 |
| 20260503041547 | 12 | 316 | 0.0 | 6.4 | 0.00 | 0.00 | 0.00 | 52 | 1013.2 |
| 20260503040043 | 13 | 333 | 0.0 | 6.4 | 0.00 | 0.00 | 0.00 | 50 | 1013.3 |